owner,sensor,date,latitude,longitude,vertical_datum,wind_speed,wind_to_direction,wind_speed_of_gust,qcFlag 
WAVCIS,ioos:station:WAVCIS:CSI15:1,2008-11-01T00:00:00Z,28.8332,-90.8320,10.0,6.56,35.0,,'11111222,11111222,99999999' 
WAVCIS,ioos:station:WAVCIS:CSI15:1,2008-11-01T01:00:00Z,28.8332,-90.8320,10.0,6.14,30.0,,'11111222,11111222,99999999' 
WAVCIS,ioos:station:WAVCIS:CSI15:1,2008-11-01T02:00:00Z,28.8332,-90.8320,10.0,6.504,37.0,,'11111222,11111222,99999999' 
WAVCIS,ioos:station:WAVCIS:CSI15:1,2008-11-01T03:00:00Z,28.8332,-90.8320,10.0,5.978,43.0,,'11111222,11111222,99999999' 
WAVCIS,ioos:station:WAVCIS:CSI15:1,2008-11-01T04:00:00Z,28.8332,-90.8320,10.0,5.81,38.0,,'11111222,11111222,99999999' 
WAVCIS,ioos:station:WAVCIS:CSI15:1,2008-11-01T05:00:00Z,28.8332,-90.8320,10.0,6.068,27.0,,'11111222,11111222,99999999' 
WAVCIS,ioos:station:WAVCIS:CSI15:1,2008-11-01T06:00:00Z,28.8332,-90.8320,10.0,6.552,24.0,,'11111222,11111222,99999999' 
WAVCIS,ioos:station:WAVCIS:CSI15:1,2008-11-01T07:00:00Z,28.8332,-90.8320,10.0,7.23,24.0,,'11111222,11111222,99999999' 
WAVCIS,ioos:station:WAVCIS:CSI15:1,2008-11-01T08:00:00Z,28.8332,-90.8320,10.0,6.645,25.0,,'11111222,11111222,99999999' 
WAVCIS,ioos:station:WAVCIS:CSI15:1,2008-11-01T09:00:00Z,28.8332,-90.8320,10.0,6.381,12.0,,'11111222,11111222,99999999' 
WAVCIS,ioos:station:WAVCIS:CSI15:1,2008-11-01T10:00:00Z,28.8332,-90.8320,10.0,7.18,15.0,,'11111222,11111222,99999999' 
WAVCIS,ioos:station:WAVCIS:CSI15:1,2008-11-01T11:00:00Z,28.8332,-90.8320,10.0,6.724,15.0,,'11111222,11111222,99999999' 
WAVCIS,ioos:station:WAVCIS:CSI15:1,2008-11-01T12:00:00Z,28.8332,-90.8320,10.0,7.35,24.0,,'11111222,11111222,99999999' 
WAVCIS,ioos:station:WAVCIS:CSI15:1,2008-11-01T13:00:00Z,28.8332,-90.8320,10.0,6.754,26.0,,'11111222,11111222,99999999' 
WAVCIS,ioos:station:WAVCIS:CSI15:1,2008-11-01T14:00:00Z,28.8332,-90.8320,10.0,5.944,27.0,,'11111222,11111222,99999999' 
WAVCIS,ioos:station:WAVCIS:CSI15:1,2008-11-01T15:00:00Z,28.8332,-90.8320,10.0,5.945,26.0,,'11111222,11111222,99999999' 
WAVCIS,ioos:station:WAVCIS:CSI15:1,2008-11-01T16:00:00Z,28.8332,-90.8320,10.0,6.21,27.0,,'11111222,11111222,99999999' 
WAVCIS,ioos:station:WAVCIS:CSI15:1,2008-11-01T17:00:00Z,28.8332,-90.8320,10.0,6.03,26.0,,'11111222,11111222,99999999' 
WAVCIS,ioos:station:WAVCIS:CSI15:1,2008-11-01T18:00:00Z,28.8332,-90.8320,10.0,5.461,27.0,,'11111222,11111222,99999999' 
WAVCIS,ioos:station:WAVCIS:CSI15:1,2008-11-01T19:00:00Z,28.8332,-90.8320,10.0,6.05,23.0,,'11111222,11111222,99999999' 
WAVCIS,ioos:station:WAVCIS:CSI15:1,2008-11-01T20:00:00Z,28.8332,-90.8320,10.0,5.663,25.0,,'11111222,11111222,99999999' 
WAVCIS,ioos:station:WAVCIS:CSI15:1,2008-11-01T21:00:00Z,28.8332,-90.8320,10.0,5.519,25.0,,'11111222,11111222,99999999' 
WAVCIS,ioos:station:WAVCIS:CSI15:1,2008-11-01T22:00:00Z,28.8332,-90.8320,10.0,5.445,29.0,,'11111222,11111222,99999999' 
WAVCIS,ioos:station:WAVCIS:CSI15:1,2008-11-01T23:00:00Z,28.8332,-90.8320,10.0,5.555,44.0,,'11111222,11111222,99999999' 
WAVCIS,ioos:station:WAVCIS:CSI15:1,2008-11-02T00:00:00Z,28.8332,-90.8320,10.0,6.074,50.0,,'11111222,11111222,99999999' 
WAVCIS,ioos:station:WAVCIS:CSI15:1,2008-11-02T01:00:00Z,28.8332,-90.8320,10.0,6.551,50.0,,'11111222,11111222,99999999' 
WAVCIS,ioos:station:WAVCIS:CSI15:1,2008-11-02T02:00:00Z,28.8332,-90.8320,10.0,6.652,45.0,,'11111222,11111222,99999999' 
WAVCIS,ioos:station:WAVCIS:CSI15:1,2008-11-02T03:00:00Z,28.8332,-90.8320,10.0,6.614,45.0,,'11111222,11111222,99999999' 
WAVCIS,ioos:station:WAVCIS:CSI15:1,2008-11-02T04:00:00Z,28.8332,-90.8320,10.0,6.06,40.0,,'11111222,11111222,99999999' 
WAVCIS,ioos:station:WAVCIS:CSI15:1,2008-11-02T05:00:00Z,28.8332,-90.8320,10.0,4.592,34.0,,'11111222,11111222,99999999' 
WAVCIS,ioos:station:WAVCIS:CSI15:1,2008-11-02T06:00:00Z,28.8332,-90.8320,10.0,4.86,44.0,,'11111222,11111222,99999999' 
WAVCIS,ioos:station:WAVCIS:CSI15:1,2008-11-02T07:00:00Z,28.8332,-90.8320,10.0,4.469,38.0,,'11111222,11111222,99999999' 
WAVCIS,ioos:station:WAVCIS:CSI15:1,2008-11-02T08:00:00Z,28.8332,-90.8320,10.0,5.172,41.0,,'11111222,11111222,99999999' 
WAVCIS,ioos:station:WAVCIS:CSI15:1,2008-11-02T09:00:00Z,28.8332,-90.8320,10.0,5.733,37.0,,'11111222,11111222,99999999' 
WAVCIS,ioos:station:WAVCIS:CSI15:1,2008-11-02T10:00:00Z,28.8332,-90.8320,10.0,4.465,38.0,,'11111222,11111222,99999999' 
WAVCIS,ioos:station:WAVCIS:CSI15:1,2008-11-02T11:00:00Z,28.8332,-90.8320,10.0,4.504,27.0,,'11111222,11111222,99999999' 
WAVCIS,ioos:station:WAVCIS:CSI15:1,2008-11-02T12:00:00Z,28.8332,-90.8320,10.0,5.353,20.0,,'11111222,11111222,99999999' 
WAVCIS,ioos:station:WAVCIS:CSI15:1,2008-11-02T13:00:00Z,28.8332,-90.8320,10.0,5.194,19.0,,'11111222,11111222,99999999' 
WAVCIS,ioos:station:WAVCIS:CSI15:1,2008-11-02T14:00:00Z,28.8332,-90.8320,10.0,6.907,20.0,,'11111222,11111222,99999999' 
WAVCIS,ioos:station:WAVCIS:CSI15:1,2008-11-02T15:00:00Z,28.8332,-90.8320,10.0,7.28,20.0,,'11111222,11111222,99999999' 
WAVCIS,ioos:station:WAVCIS:CSI15:1,2008-11-02T16:00:00Z,28.8332,-90.8320,10.0,6.924,23.0,,'11111222,11111222,99999999' 
WAVCIS,ioos:station:WAVCIS:CSI15:1,2008-11-02T17:00:00Z,28.8332,-90.8320,10.0,6.553,13.0,,'11111222,11111222,99999999' 
WAVCIS,ioos:station:WAVCIS:CSI15:1,2008-11-02T18:00:00Z,28.8332,-90.8320,10.0,6.317,18.0,,'11111222,11111222,99999999' 
WAVCIS,ioos:station:WAVCIS:CSI15:1,2008-11-02T19:00:00Z,28.8332,-90.8320,10.0,6.064,18.0,,'11111222,11111222,99999999' 
WAVCIS,ioos:station:WAVCIS:CSI15:1,2008-11-02T20:00:00Z,28.8332,-90.8320,10.0,5.626,12.0,,'11111222,11111222,99999999' 
WAVCIS,ioos:station:WAVCIS:CSI15:1,2008-11-02T21:00:00Z,28.8332,-90.8320,10.0,6.181,11.0,,'11111222,11111222,99999999' 
WAVCIS,ioos:station:WAVCIS:CSI15:1,2008-11-02T22:00:00Z,28.8332,-90.8320,10.0,6.026,17.0,,'11111222,11111222,99999999' 
WAVCIS,ioos:station:WAVCIS:CSI15:1,2008-11-02T23:00:00Z,28.8332,-90.8320,10.0,6.218,17.0,,'11111222,11111222,99999999' 
WAVCIS,ioos:station:WAVCIS:CSI15:1,2008-11-03T00:00:00Z,28.8332,-90.8320,10.0,6.408,25.0,,'11111222,11111222,99999999' 
WAVCIS,ioos:station:WAVCIS:CSI15:1,2008-11-03T01:00:00Z,28.8332,-90.8320,10.0,6.45,33.0,,'11111222,11111222,99999999' 
WAVCIS,ioos:station:WAVCIS:CSI15:1,2008-11-03T02:00:00Z,28.8332,-90.8320,10.0,7.06,27.0,,'11111222,11111222,99999999' 
WAVCIS,ioos:station:WAVCIS:CSI15:1,2008-11-03T03:00:00Z,28.8332,-90.8320,10.0,6.767,37.0,,'11111222,11111222,99999999' 
WAVCIS,ioos:station:WAVCIS:CSI15:1,2008-11-03T04:00:00Z,28.8332,-90.8320,10.0,6.387,29.0,,'11111222,11111222,99999999' 
WAVCIS,ioos:station:WAVCIS:CSI15:1,2008-11-03T05:00:00Z,28.8332,-90.8320,10.0,6.575,34.0,,'11111222,11111222,99999999' 
WAVCIS,ioos:station:WAVCIS:CSI15:1,2008-11-03T06:00:00Z,28.8332,-90.8320,10.0,5.338,40.0,,'11111222,11111222,99999999' 
WAVCIS,ioos:station:WAVCIS:CSI15:1,2008-11-03T07:00:00Z,28.8332,-90.8320,10.0,4.753,23.0,,'11111222,11111222,99999999' 
WAVCIS,ioos:station:WAVCIS:CSI15:1,2008-11-03T08:00:00Z,28.8332,-90.8320,10.0,4.974,25.0,,'11111222,11111222,99999999' 
WAVCIS,ioos:station:WAVCIS:CSI15:1,2008-11-03T09:00:00Z,28.8332,-90.8320,10.0,5.384,12.0,,'11111222,11111222,99999999' 
WAVCIS,ioos:station:WAVCIS:CSI15:1,2008-11-03T10:00:00Z,28.8332,-90.8320,10.0,5.603,6.0,,'11111222,11111222,99999999' 
WAVCIS,ioos:station:WAVCIS:CSI15:1,2008-11-03T11:00:00Z,28.8332,-90.8320,10.0,6.058,2.0,,'11111222,11111222,99999999' 
WAVCIS,ioos:station:WAVCIS:CSI15:1,2008-11-03T12:00:00Z,28.8332,-90.8320,10.0,6.563,2.0,,'11111222,11111222,99999999' 
WAVCIS,ioos:station:WAVCIS:CSI15:1,2008-11-03T13:00:00Z,28.8332,-90.8320,10.0,6.947,3.0,,'11111222,11111222,99999999' 
WAVCIS,ioos:station:WAVCIS:CSI15:1,2008-11-03T14:00:00Z,28.8332,-90.8320,10.0,6.541,6.0,,'11111222,11111222,99999999' 
WAVCIS,ioos:station:WAVCIS:CSI15:1,2008-11-03T15:00:00Z,28.8332,-90.8320,10.0,7.16,21.0,,'11111222,11111222,99999999' 
WAVCIS,ioos:station:WAVCIS:CSI15:1,2008-11-03T16:00:00Z,28.8332,-90.8320,10.0,6.172,19.0,,'11111222,11111222,99999999' 
WAVCIS,ioos:station:WAVCIS:CSI15:1,2008-11-03T17:00:00Z,28.8332,-90.8320,10.0,6.753,22.0,,'11111222,11111222,99999999' 
WAVCIS,ioos:station:WAVCIS:CSI15:1,2008-11-03T18:00:00Z,28.8332,-90.8320,10.0,6.927,22.0,,'11111222,11111222,99999999' 
WAVCIS,ioos:station:WAVCIS:CSI15:1,2008-11-03T19:00:00Z,28.8332,-90.8320,10.0,7.44,25.0,,'11111222,11111222,99999999' 
WAVCIS,ioos:station:WAVCIS:CSI15:1,2008-11-03T20:00:00Z,28.8332,-90.8320,10.0,7.8,37.0,,'11111222,11111222,99999999' 
WAVCIS,ioos:station:WAVCIS:CSI15:1,2008-11-03T21:00:00Z,28.8332,-90.8320,10.0,8.56,44.0,,'11111222,11111222,99999999' 
WAVCIS,ioos:station:WAVCIS:CSI15:1,2008-11-03T22:00:00Z,28.8332,-90.8320,10.0,8.75,44.0,,'11111222,11111222,99999999' 
WAVCIS,ioos:station:WAVCIS:CSI15:1,2008-11-03T23:00:00Z,28.8332,-90.8320,10.0,8.22,40.0,,'11111222,11111222,99999999' 
WAVCIS,ioos:station:WAVCIS:CSI15:1,2008-11-04T00:00:00Z,28.8332,-90.8320,10.0,8.74,36.0,,'11111222,11111222,99999999' 
WAVCIS,ioos:station:WAVCIS:CSI15:1,2008-11-04T01:00:00Z,28.8332,-90.8320,10.0,8.41,38.0,,'11111222,11111222,99999999' 
WAVCIS,ioos:station:WAVCIS:CSI15:1,2008-11-04T02:00:00Z,28.8332,-90.8320,10.0,6.82,43.0,,'11111222,11111222,99999999' 
WAVCIS,ioos:station:WAVCIS:CSI15:1,2008-11-04T03:00:00Z,28.8332,-90.8320,10.0,7.2,54.0,,'11111222,11111222,99999999' 
WAVCIS,ioos:station:WAVCIS:CSI15:1,2008-11-04T04:00:00Z,28.8332,-90.8320,10.0,8.16,51.0,,'11111222,11111222,99999999' 
WAVCIS,ioos:station:WAVCIS:CSI15:1,2008-11-04T05:00:00Z,28.8332,-90.8320,10.0,9.71,61.0,,'11111222,11111222,99999999' 
WAVCIS,ioos:station:WAVCIS:CSI15:1,2008-11-04T06:00:00Z,28.8332,-90.8320,10.0,8.96,76.0,,'11111222,11111222,99999999' 
WAVCIS,ioos:station:WAVCIS:CSI15:1,2008-11-04T07:00:00Z,28.8332,-90.8320,10.0,8.91,73.0,,'11111222,11111222,99999999' 
WAVCIS,ioos:station:WAVCIS:CSI15:1,2008-11-04T08:00:00Z,28.8332,-90.8320,10.0,9.07,68.0,,'11111222,11111222,99999999' 
WAVCIS,ioos:station:WAVCIS:CSI15:1,2008-11-04T09:00:00Z,28.8332,-90.8320,10.0,7.93,65.0,,'11111222,11111222,99999999' 
WAVCIS,ioos:station:WAVCIS:CSI15:1,2008-11-04T10:00:00Z,28.8332,-90.8320,10.0,6.39,23.0,,'11111222,11111222,99999999' 
WAVCIS,ioos:station:WAVCIS:CSI15:1,2008-11-04T11:00:00Z,28.8332,-90.8320,10.0,5.811,23.0,,'11111222,11111222,99999999' 
WAVCIS,ioos:station:WAVCIS:CSI15:1,2008-11-04T12:00:00Z,28.8332,-90.8320,10.0,5.978,20.0,,'11111222,11111222,99999999' 
WAVCIS,ioos:station:WAVCIS:CSI15:1,2008-11-04T13:00:00Z,28.8332,-90.8320,10.0,6.699,19.0,,'11111222,11111222,99999999' 
WAVCIS,ioos:station:WAVCIS:CSI15:1,2008-11-04T14:00:00Z,28.8332,-90.8320,10.0,6.186,16.0,,'11111222,11111222,99999999' 
WAVCIS,ioos:station:WAVCIS:CSI15:1,2008-11-04T15:00:00Z,28.8332,-90.8320,10.0,6.35,29.0,,'11111222,11111222,99999999' 
WAVCIS,ioos:station:WAVCIS:CSI15:1,2008-11-04T16:00:00Z,28.8332,-90.8320,10.0,6.498,34.0,,'11111222,11111222,99999999' 
WAVCIS,ioos:station:WAVCIS:CSI15:1,2008-11-04T17:00:00Z,28.8332,-90.8320,10.0,6.633,35.0,,'11111222,11111222,99999999' 
WAVCIS,ioos:station:WAVCIS:CSI15:1,2008-11-04T18:00:00Z,28.8332,-90.8320,10.0,6.593,34.0,,'11111222,11111222,99999999' 
WAVCIS,ioos:station:WAVCIS:CSI15:1,2008-11-04T19:00:00Z,28.8332,-90.8320,10.0,7.6,42.0,,'11111222,11111222,99999999' 
WAVCIS,ioos:station:WAVCIS:CSI15:1,2008-11-04T20:00:00Z,28.8332,-90.8320,10.0,8.18,49.0,,'11111222,11111222,99999999' 
WAVCIS,ioos:station:WAVCIS:CSI15:1,2008-11-04T21:00:00Z,28.8332,-90.8320,10.0,7.58,51.0,,'11111222,11111222,99999999' 
WAVCIS,ioos:station:WAVCIS:CSI15:1,2008-11-04T22:00:00Z,28.8332,-90.8320,10.0,7.88,50.0,,'11111222,11111222,99999999' 
WAVCIS,ioos:station:WAVCIS:CSI15:1,2008-11-04T23:00:00Z,28.8332,-90.8320,10.0,7.2,56.0,,'11111222,11111222,99999999' 
WAVCIS,ioos:station:WAVCIS:CSI15:1,2008-11-05T00:00:00Z,28.8332,-90.8320,10.0,6.435,63.0,,'11111222,11111222,99999999' 
WAVCIS,ioos:station:WAVCIS:CSI15:1,2008-11-05T01:00:00Z,28.8332,-90.8320,10.0,5.853,59.0,,'11111222,11111222,99999999' 
WAVCIS,ioos:station:WAVCIS:CSI15:1,2008-11-05T02:00:00Z,28.8332,-90.8320,10.0,6.363,69.0,,'11111222,11111222,99999999' 
WAVCIS,ioos:station:WAVCIS:CSI15:1,2008-11-05T03:00:00Z,28.8332,-90.8320,10.0,6.509,78.0,,'11111222,11111222,99999999' 
WAVCIS,ioos:station:WAVCIS:CSI15:1,2008-11-05T04:00:00Z,28.8332,-90.8320,10.0,7.05,82.0,,'11111222,11111222,99999999' 
WAVCIS,ioos:station:WAVCIS:CSI15:1,2008-11-05T05:00:00Z,28.8332,-90.8320,10.0,6.754,81.0,,'11111222,11111222,99999999' 
WAVCIS,ioos:station:WAVCIS:CSI15:1,2008-11-05T06:00:00Z,28.8332,-90.8320,10.0,6.791,86.0,,'11111222,11111222,99999999' 
WAVCIS,ioos:station:WAVCIS:CSI15:1,2008-11-05T07:00:00Z,28.8332,-90.8320,10.0,6.483,84.0,,'11111222,11111222,99999999' 
WAVCIS,ioos:station:WAVCIS:CSI15:1,2008-11-05T08:00:00Z,28.8332,-90.8320,10.0,6.813,89.0,,'11111222,11111222,99999999' 
WAVCIS,ioos:station:WAVCIS:CSI15:1,2008-11-05T09:00:00Z,28.8332,-90.8320,10.0,5.889,92.0,,'11111222,11111222,99999999' 
WAVCIS,ioos:station:WAVCIS:CSI15:1,2008-11-05T10:00:00Z,28.8332,-90.8320,10.0,5.845,93.0,,'11111222,11111222,99999999' 
WAVCIS,ioos:station:WAVCIS:CSI15:1,2008-11-05T11:00:00Z,28.8332,-90.8320,10.0,5.978,91.0,,'11111222,11111222,99999999' 
WAVCIS,ioos:station:WAVCIS:CSI15:1,2008-11-05T12:00:00Z,28.8332,-90.8320,10.0,5.326,102.0,,'11111222,11111222,99999999' 
WAVCIS,ioos:station:WAVCIS:CSI15:1,2008-11-05T13:00:00Z,28.8332,-90.8320,10.0,5.947,104.0,,'11111222,11111222,99999999' 
WAVCIS,ioos:station:WAVCIS:CSI15:1,2008-11-05T14:00:00Z,28.8332,-90.8320,10.0,6.148,101.0,,'11111222,11111222,99999999' 
WAVCIS,ioos:station:WAVCIS:CSI15:1,2008-11-05T15:00:00Z,28.8332,-90.8320,10.0,5.772,110.0,,'11111222,11111222,99999999' 
WAVCIS,ioos:station:WAVCIS:CSI15:1,2008-11-05T16:00:00Z,28.8332,-90.8320,10.0,5.63,110.0,,'11111222,11111222,99999999' 
WAVCIS,ioos:station:WAVCIS:CSI15:1,2008-11-05T17:00:00Z,28.8332,-90.8320,10.0,5.258,104.0,,'11111222,11111222,99999999' 
WAVCIS,ioos:station:WAVCIS:CSI15:1,2008-11-05T18:00:00Z,28.8332,-90.8320,10.0,5.079,110.0,,'11111222,11111222,99999999' 
WAVCIS,ioos:station:WAVCIS:CSI15:1,2008-11-05T19:00:00Z,28.8332,-90.8320,10.0,4.786,99.0,,'11111222,11111222,99999999' 
WAVCIS,ioos:station:WAVCIS:CSI15:1,2008-11-05T20:00:00Z,28.8332,-90.8320,10.0,4.464,94.0,,'11111222,11111222,99999999' 
WAVCIS,ioos:station:WAVCIS:CSI15:1,2008-11-05T21:00:00Z,28.8332,-90.8320,10.0,4.15,90.0,,'11111222,11111222,99999999' 
WAVCIS,ioos:station:WAVCIS:CSI15:1,2008-11-05T22:00:00Z,28.8332,-90.8320,10.0,4.787,90.0,,'11111222,11111222,99999999' 
WAVCIS,ioos:station:WAVCIS:CSI15:1,2008-11-05T23:00:00Z,28.8332,-90.8320,10.0,4.85,94.0,,'11111222,11111222,99999999' 
WAVCIS,ioos:station:WAVCIS:CSI15:1,2008-11-06T00:00:00Z,28.8332,-90.8320,10.0,4.832,86.0,,'11111222,11111222,99999999' 
WAVCIS,ioos:station:WAVCIS:CSI15:1,2008-11-06T01:00:00Z,28.8332,-90.8320,10.0,5.752,106.0,,'11111222,11111222,99999999' 
WAVCIS,ioos:station:WAVCIS:CSI15:1,2008-11-06T02:00:00Z,28.8332,-90.8320,10.0,6.395,112.0,,'11111222,11111222,99999999' 
WAVCIS,ioos:station:WAVCIS:CSI15:1,2008-11-06T03:00:00Z,28.8332,-90.8320,10.0,7.49,109.0,,'11111222,11111222,99999999' 
WAVCIS,ioos:station:WAVCIS:CSI15:1,2008-11-06T04:00:00Z,28.8332,-90.8320,10.0,7.9,109.0,,'11111222,11111222,99999999' 
WAVCIS,ioos:station:WAVCIS:CSI15:1,2008-11-06T05:00:00Z,28.8332,-90.8320,10.0,8.29,110.0,,'11111222,11111222,99999999' 
WAVCIS,ioos:station:WAVCIS:CSI15:1,2008-11-06T06:00:00Z,28.8332,-90.8320,10.0,8.9,119.0,,'11111222,11111222,99999999' 
WAVCIS,ioos:station:WAVCIS:CSI15:1,2008-11-06T07:00:00Z,28.8332,-90.8320,10.0,8.33,120.0,,'11111222,11111222,99999999' 
WAVCIS,ioos:station:WAVCIS:CSI15:1,2008-11-06T08:00:00Z,28.8332,-90.8320,10.0,8.61,120.0,,'11111222,11111222,99999999' 
WAVCIS,ioos:station:WAVCIS:CSI15:1,2008-11-06T09:00:00Z,28.8332,-90.8320,10.0,7.61,128.0,,'11111222,11111222,99999999' 
WAVCIS,ioos:station:WAVCIS:CSI15:1,2008-11-06T10:00:00Z,28.8332,-90.8320,10.0,7.89,128.0,,'11111222,11111222,99999999' 
WAVCIS,ioos:station:WAVCIS:CSI15:1,2008-11-06T11:00:00Z,28.8332,-90.8320,10.0,7.31,134.0,,'11111222,11111222,99999999' 
WAVCIS,ioos:station:WAVCIS:CSI15:1,2008-11-06T12:00:00Z,28.8332,-90.8320,10.0,7.13,143.0,,'11111222,11111222,99999999' 
WAVCIS,ioos:station:WAVCIS:CSI15:1,2008-11-06T13:00:00Z,28.8332,-90.8320,10.0,7.38,138.0,,'11111222,11111222,99999999' 
WAVCIS,ioos:station:WAVCIS:CSI15:1,2008-11-06T14:00:00Z,28.8332,-90.8320,10.0,6.851,139.0,,'11111222,11111222,99999999' 
WAVCIS,ioos:station:WAVCIS:CSI15:1,2008-11-06T15:00:00Z,28.8332,-90.8320,10.0,7.38,134.0,,'11111222,11111222,99999999' 
WAVCIS,ioos:station:WAVCIS:CSI15:1,2008-11-06T16:00:00Z,28.8332,-90.8320,10.0,7.65,132.0,,'11111222,11111222,99999999' 
WAVCIS,ioos:station:WAVCIS:CSI15:1,2008-11-06T17:00:00Z,28.8332,-90.8320,10.0,6.976,133.0,,'11111222,11111222,99999999' 
WAVCIS,ioos:station:WAVCIS:CSI15:1,2008-11-06T18:00:00Z,28.8332,-90.8320,10.0,6.322,136.0,,'11111222,11111222,99999999' 
WAVCIS,ioos:station:WAVCIS:CSI15:1,2008-11-06T19:00:00Z,28.8332,-90.8320,10.0,6.935,136.0,,'11111222,11111222,99999999' 
WAVCIS,ioos:station:WAVCIS:CSI15:1,2008-11-06T20:00:00Z,28.8332,-90.8320,10.0,7.16,140.0,,'11111222,11111222,99999999' 
WAVCIS,ioos:station:WAVCIS:CSI15:1,2008-11-06T21:00:00Z,28.8332,-90.8320,10.0,5.306,159.0,,'11111222,11111222,99999999' 
WAVCIS,ioos:station:WAVCIS:CSI15:1,2008-11-06T22:00:00Z,28.8332,-90.8320,10.0,5.307,242.0,,'11111222,11111222,99999999' 
WAVCIS,ioos:station:WAVCIS:CSI15:1,2008-11-06T23:00:00Z,28.8332,-90.8320,10.0,3.342,257.0,,'11111222,11111222,99999999' 
WAVCIS,ioos:station:WAVCIS:CSI15:1,2008-11-07T00:00:00Z,28.8332,-90.8320,10.0,2.278,95.0,,'11111222,11111222,99999999' 
WAVCIS,ioos:station:WAVCIS:CSI15:1,2008-11-07T01:00:00Z,28.8332,-90.8320,10.0,6.94,106.0,,'11111222,11111222,99999999' 
WAVCIS,ioos:station:WAVCIS:CSI15:1,2008-11-07T02:00:00Z,28.8332,-90.8320,10.0,5.285,100.0,,'11111222,11111222,99999999' 
WAVCIS,ioos:station:WAVCIS:CSI15:1,2008-11-07T03:00:00Z,28.8332,-90.8320,10.0,5.56,109.0,,'11111222,11111222,99999999' 
WAVCIS,ioos:station:WAVCIS:CSI15:1,2008-11-07T04:00:00Z,28.8332,-90.8320,10.0,3.833,86.0,,'11111222,11111222,99999999' 
WAVCIS,ioos:station:WAVCIS:CSI15:1,2008-11-07T05:00:00Z,28.8332,-90.8320,10.0,5.533,163.0,,'11111222,11111222,99999999' 
WAVCIS,ioos:station:WAVCIS:CSI15:1,2008-11-07T06:00:00Z,28.8332,-90.8320,10.0,4.37,175.0,,'11111222,11111222,99999999' 
WAVCIS,ioos:station:WAVCIS:CSI15:1,2008-11-07T07:00:00Z,28.8332,-90.8320,10.0,3.792,189.0,,'11111222,11111222,99999999' 
WAVCIS,ioos:station:WAVCIS:CSI15:1,2008-11-07T08:00:00Z,28.8332,-90.8320,10.0,3.861,194.0,,'11111222,11111222,99999999' 
WAVCIS,ioos:station:WAVCIS:CSI15:1,2008-11-07T09:00:00Z,28.8332,-90.8320,10.0,6.653,194.0,,'11111222,11111222,99999999' 
WAVCIS,ioos:station:WAVCIS:CSI15:1,2008-11-07T10:00:00Z,28.8332,-90.8320,10.0,4.891,174.0,,'11111222,11111222,99999999' 
WAVCIS,ioos:station:WAVCIS:CSI15:1,2008-11-07T11:00:00Z,28.8332,-90.8320,10.0,3.747,170.0,,'11111222,11111222,99999999' 
WAVCIS,ioos:station:WAVCIS:CSI15:1,2008-11-07T12:00:00Z,28.8332,-90.8320,10.0,2.706,196.0,,'11111222,11111222,99999999' 
WAVCIS,ioos:station:WAVCIS:CSI15:1,2008-11-07T13:00:00Z,28.8332,-90.8320,10.0,5.338,228.0,,'11111222,11111222,99999999' 
WAVCIS,ioos:station:WAVCIS:CSI15:1,2008-11-07T14:00:00Z,28.8332,-90.8320,10.0,7.74,243.0,,'11111222,11111222,99999999' 
WAVCIS,ioos:station:WAVCIS:CSI15:1,2008-11-07T15:00:00Z,28.8332,-90.8320,10.0,0.794,313.0,,'11111222,11111222,99999999' 
WAVCIS,ioos:station:WAVCIS:CSI15:1,2008-11-07T16:00:00Z,28.8332,-90.8320,10.0,6.685,285.0,,'11111222,11111222,99999999' 
WAVCIS,ioos:station:WAVCIS:CSI15:1,2008-11-07T17:00:00Z,28.8332,-90.8320,10.0,8.52,331.0,,'11111222,11111222,99999999' 
WAVCIS,ioos:station:WAVCIS:CSI15:1,2008-11-07T18:00:00Z,28.8332,-90.8320,10.0,9.61,331.0,,'11111222,11111222,99999999' 
WAVCIS,ioos:station:WAVCIS:CSI15:1,2008-11-07T19:00:00Z,28.8332,-90.8320,10.0,7.49,348.0,,'11111222,11111222,99999999' 
WAVCIS,ioos:station:WAVCIS:CSI15:1,2008-11-07T20:00:00Z,28.8332,-90.8320,10.0,5.347,347.0,,'11111222,11111222,99999999' 
WAVCIS,ioos:station:WAVCIS:CSI15:1,2008-11-07T21:00:00Z,28.8332,-90.8320,10.0,5.827,321.0,,'11111222,11111222,99999999' 
WAVCIS,ioos:station:WAVCIS:CSI15:1,2008-11-07T22:00:00Z,28.8332,-90.8320,10.0,6.001,327.0,,'11111222,11111222,99999999' 
WAVCIS,ioos:station:WAVCIS:CSI15:1,2008-11-07T23:00:00Z,28.8332,-90.8320,10.0,7.07,324.0,,'11111222,11111222,99999999' 
WAVCIS,ioos:station:WAVCIS:CSI15:1,2008-11-08T00:00:00Z,28.8332,-90.8320,10.0,7.81,336.0,,'11111222,11111222,99999999' 
WAVCIS,ioos:station:WAVCIS:CSI15:1,2008-11-08T01:00:00Z,28.8332,-90.8320,10.0,8.9,335.0,,'11111222,11111222,99999999' 
WAVCIS,ioos:station:WAVCIS:CSI15:1,2008-11-08T02:00:00Z,28.8332,-90.8320,10.0,9.16,348.0,,'11111222,11111222,99999999' 
WAVCIS,ioos:station:WAVCIS:CSI15:1,2008-11-08T03:00:00Z,28.8332,-90.8320,10.0,8.6,340.0,,'11111222,11111222,99999999' 
WAVCIS,ioos:station:WAVCIS:CSI15:1,2008-11-08T04:00:00Z,28.8332,-90.8320,10.0,7.12,353.0,,'11111222,11111222,99999999' 
WAVCIS,ioos:station:WAVCIS:CSI15:1,2008-11-08T05:00:00Z,28.8332,-90.8320,10.0,8.02,355.0,,'11111222,11111222,99999999' 
WAVCIS,ioos:station:WAVCIS:CSI15:1,2008-11-08T06:00:00Z,28.8332,-90.8320,10.0,6.984,356.0,,'11111222,11111222,99999999' 
WAVCIS,ioos:station:WAVCIS:CSI15:1,2008-11-08T07:00:00Z,28.8332,-90.8320,10.0,7.23,348.0,,'11111222,11111222,99999999' 
WAVCIS,ioos:station:WAVCIS:CSI15:1,2008-11-08T08:00:00Z,28.8332,-90.8320,10.0,6.687,351.0,,'11111222,11111222,99999999' 
WAVCIS,ioos:station:WAVCIS:CSI15:1,2008-11-08T09:00:00Z,28.8332,-90.8320,10.0,6.188,343.0,,'11111222,11111222,99999999' 
WAVCIS,ioos:station:WAVCIS:CSI15:1,2008-11-08T10:00:00Z,28.8332,-90.8320,10.0,7.16,334.0,,'11111222,11111222,99999999' 
WAVCIS,ioos:station:WAVCIS:CSI15:1,2008-11-08T11:00:00Z,28.8332,-90.8320,10.0,6.649,338.0,,'11111222,11111222,99999999' 
WAVCIS,ioos:station:WAVCIS:CSI15:1,2008-11-08T12:00:00Z,28.8332,-90.8320,10.0,6.023,339.0,,'11111222,11111222,99999999' 
WAVCIS,ioos:station:WAVCIS:CSI15:1,2008-11-08T13:00:00Z,28.8332,-90.8320,10.0,5.86,337.0,,'11111222,11111222,99999999' 
WAVCIS,ioos:station:WAVCIS:CSI15:1,2008-11-08T14:00:00Z,28.8332,-90.8320,10.0,5.074,331.0,,'11111222,11111222,99999999' 
WAVCIS,ioos:station:WAVCIS:CSI15:1,2008-11-08T15:00:00Z,28.8332,-90.8320,10.0,4.179,322.0,,'11111222,11111222,99999999' 
WAVCIS,ioos:station:WAVCIS:CSI15:1,2008-11-08T16:00:00Z,28.8332,-90.8320,10.0,4.268,318.0,,'11111222,11111222,99999999' 
WAVCIS,ioos:station:WAVCIS:CSI15:1,2008-11-08T17:00:00Z,28.8332,-90.8320,10.0,4.483,306.0,,'11111222,11111222,99999999' 
WAVCIS,ioos:station:WAVCIS:CSI15:1,2008-11-08T18:00:00Z,28.8332,-90.8320,10.0,4.061,307.0,,'11111222,11111222,99999999' 
WAVCIS,ioos:station:WAVCIS:CSI15:1,2008-11-08T19:00:00Z,28.8332,-90.8320,10.0,4.516,298.0,,'11111222,11111222,99999999' 
WAVCIS,ioos:station:WAVCIS:CSI15:1,2008-11-08T20:00:00Z,28.8332,-90.8320,10.0,3.592,281.0,,'11111222,11111222,99999999' 
WAVCIS,ioos:station:WAVCIS:CSI15:1,2008-11-08T21:00:00Z,28.8332,-90.8320,10.0,4.402,276.0,,'11111222,11111222,99999999' 
WAVCIS,ioos:station:WAVCIS:CSI15:1,2008-11-08T22:00:00Z,28.8332,-90.8320,10.0,5.251,266.0,,'11111222,11111222,99999999' 
WAVCIS,ioos:station:WAVCIS:CSI15:1,2008-11-08T23:00:00Z,28.8332,-90.8320,10.0,5.609,250.0,,'11111222,11111222,99999999' 
WAVCIS,ioos:station:WAVCIS:CSI15:1,2008-11-09T00:00:00Z,28.8332,-90.8320,10.0,6.682,249.0,,'11111222,11111222,99999999' 
WAVCIS,ioos:station:WAVCIS:CSI15:1,2008-11-09T01:00:00Z,28.8332,-90.8320,10.0,6.893,246.0,,'11111222,11111222,99999999' 
WAVCIS,ioos:station:WAVCIS:CSI15:1,2008-11-09T02:00:00Z,28.8332,-90.8320,10.0,6.976,242.0,,'11111222,11111222,99999999' 
WAVCIS,ioos:station:WAVCIS:CSI15:1,2008-11-09T03:00:00Z,28.8332,-90.8320,10.0,6.821,248.0,,'11111222,11111222,99999999' 
WAVCIS,ioos:station:WAVCIS:CSI15:1,2008-11-09T04:00:00Z,28.8332,-90.8320,10.0,6.757,254.0,,'11111222,11111222,99999999' 
WAVCIS,ioos:station:WAVCIS:CSI15:1,2008-11-09T05:00:00Z,28.8332,-90.8320,10.0,6.603,256.0,,'11111222,11111222,99999999' 
WAVCIS,ioos:station:WAVCIS:CSI15:1,2008-11-09T06:00:00Z,28.8332,-90.8320,10.0,6.028,264.0,,'11111222,11111222,99999999' 